GFSFLT2_925_temp_078.txt.gz
Temp
5 4 4 4 3 2 2 3 3 3 3 4 5 6 6 6 6 7 7 8 8 8 8 8 8 7 7
4 3 2 2 2 2 2 2 2 3 3 4 4 4 5 4 5 5 6 6 7 7 7 6 6 6 6
4 3 2 2 3 3 3 3 2 2 2 2 3 3 3 3 3 4 4 4 4 5 5 5 5 5 5
3 3 2 2 2 2 2 2 2 2 2 2 2 2 2 2 2 2 3 3 3 3 3 3 3 4 4
3 3 2 2 1 1 1 1 0 1 1 1 1 1 1 1 1 1 2 2 2 2 2 2 2 2 2
2 1 1 0 -0 -0 -1 -1 -0 -0 -0 1 0 1 0 0 0 0 1 1 1 1 1 1 1 1 1
0 0 -1 -1 -1 -2 -2 -2 -2 -1 -1 -0 -1 -0 -1 -1 -1 -1 -1 -1 -1 -1 -0 0 0 0 0
-1 -1 -1 -2 -2 -2 -2 -2 -1 -2 -1 -2 -2 -2 -1 -1 -2 -1 -2 -2 -2 -2 -1 -1 -1 -0 0
-2 -2 -2 -2 -2 -2 -2 -2 -2 -2 -3 -3 -3 -3 -2 -2 -2 -2 -2 -2 -2 -2 -2 -1 -1 -1 -0
-2 -2 -3 -3 -3 -3 -3 -3 -3 -3 -4 -4 -4 -5 -5 -3 -3 -3 -3 -2 -3 -3 -2 -2 -2 -2 -1
-2 -2 -3 -3 -3 -4 -4 -4 -4 -4 -4 -5 -5 -5 -5 -5 -5 -3 -3 -3 -3 -3 -3 -3 -3 -2 -3
-3 -3 -3 -3 -4 -4 -5 -5 -5 -6 -6 -6 -6 -6 -6 -6 -5 -4 -4 -3 -4 -4 -5 -5 -4 -4 -3
-3 -3 -3 -4 -4 -5 -5 -6 -6 -6 -6 -7 -7 -7 -7 -6 -6 -6 -6 -5 -5 -4 -4 -5 -5 -5 -5
-3 -3 -4 -4 -5 -5 -5 -5 -6 -6 -6 -6 -6 -6 -7 -7 -7 -7 -7 -6 -4 -5 -5 -5 -4 -5 -5
-4 -4 -4 -5 -5 -5 -5 -5 -6 -6 -6 -6 -5 -5 -6 -6 -7 -8 -7 -6 -5 -5 -5 -5 -4 -5 -5
-4 -5 -5 -5 -5 -5 -5 -6 -6 -6 -6 -6 -6 -6 -6 -6 -6 -6 -6 -6 -5 -5 -5 -5 -5 -5 -4
-5 -5 -5 -6 -6 -6 -6 -6 -6 -6 -6 -6 -6 -6 -6 -7 -6 -5 -5 -5 -5 -6 -6 -6 -6 -6 -5

GFSFLT2_925_temp_081.txt.gz
Temp
5 4 4 4 3 2 2 3 3 3 3 4 4 5 5 5 5 6 7 8 9 9 10 10 9 9 8
4 4 3 2 2 2 2 2 2 2 2 3 3 3 4 5 4 6 6 7 7 8 8 7 7 7 8
3 3 3 2 2 2 2 2 2 2 2 2 2 2 3 3 3 4 5 5 5 6 6 6 6 6 6
4 3 2 2 2 2 2 2 2 1 1 1 1 2 1 2 2 2 3 3 3 3 4 4 4 4 5
3 2 2 1 1 0 1 0 -0 0 1 1 1 1 1 1 1 1 2 2 2 2 3 3 2 3 3
2 1 0 0 -0 -0 -1 -1 -1 -0 -0 -0 -0 0 -0 -0 -0 -0 0 1 1 1 1 1 1 1 1
1 0 -1 -1 -1 -2 -2 -2 -2 -1 -1 -1 -1 -1 -1 -1 -1 -1 -1 -0 0 0 0 1 1 1 1
-0 -1 -1 -2 -2 -2 -2 -2 -2 -2 -2 -2 -2 -1 -1 -2 -2 -2 -2 -2 -2 -1 -1 -1 -1 -0 -0
-1 -1 -2 -2 -2 -2 -2 -2 -2 -3 -3 -3 -3 -3 -2 -2 -2 -3 -2 -2 -2 -2 -2 -1 -1 -1 -0
-2 -2 -2 -3 -3 -3 -3 -3 -3 -4 -4 -4 -4 -4 -3 -3 -3 -3 -3 -3 -3 -3 -3 -3 -2 -2 -1
-2 -2 -2 -3 -3 -3 -3 -4 -4 -4 -5 -5 -5 -5 -5 -5 -4 -4 -3 -3 -3 -3 -3 -3 -3 -3 -3
-2 -3 -3 -3 -3 -4 -4 -5 -5 -5 -5 -6 -6 -6 -6 -6 -6 -4 -4 -3 -4 -4 -3 -4 -4 -4 -4
-3 -3 -3 -3 -4 -4 -5 -5 -6 -6 -6 -7 -7 -7 -7 -7 -7 -7 -6 -6 -5 -4 -4 -5 -5 -5 -5
-3 -3 -3 -4 -4 -5 -5 -5 -6 -6 -6 -6 -6 -7 -7 -6 -7 -7 -7 -7 -4 -4 -5 -4 -4 -4 -5
-3 -4 -4 -4 -4 -5 -5 -5 -6 -6 -6 -5 -6 -6 -6 -6 -7 -7 -7 -6 -5 -5 -5 -5 -4 -4 -4
-3 -4 -4 -5 -5 -5 -5 -5 -5 -6 -6 -6 -6 -6 -6 -6 -6 -6 -6 -6 -5 -5 -5 -6 -5 -5 -4
-3 -4 -4 -5 -5 -5 -6 -6 -6 -6 -6 -6 -6 -6 -7 -7 -6 -6 -6 -6 -6 -5 -6 -6 -6 -6 -5

GFSFLT2_925_temp_084.txt.gz
Temp
5 4 4 4 3 2 2 3 3 3 3 4 4 4 5 4 5 5 7 8 9 9 12 11 11 10 9
3 3 4 3 2 2 2 2 2 2 2 2 3 2 3 4 5 5 6 7 7 7 8 8 8 8 8
3 3 3 2 2 2 2 2 2 2 2 2 2 1 2 3 3 4 5 6 6 6 6 7 7 7 7
4 3 2 2 2 2 1 1 1 1 1 1 1 2 1 2 2 3 3 3 4 5 5 5 5 5 6
3 2 1 1 1 1 1 1 -0 0 1 1 1 1 1 1 1 1 2 2 2 3 3 3 4 4 4
2 1 1 0 0 -0 -1 -0 -1 -1 -0 -1 -0 -0 -0 -1 -1 -1 0 1 2 2 2 2 2 2 3
2 1 0 0 -0 -1 -1 -1 -1 -2 -1 -1 -1 -1 -1 -1 -2 -2 -2 -1 -0 1 1 1 1 1 1
1 0 -0 -1 -1 -1 -2 -2 -2 -3 -2 -2 -2 -2 -2 -2 -2 -2 -2 -2 -2 -2 -1 -1 -1 -0 -0
-1 -1 -1 -2 -2 -2 -2 -2 -3 -3 -3 -3 -3 -3 -3 -3 -2 -2 -2 -3 -2 -2 -2 -1 -1 -1 -1
-2 -2 -2 -3 -2 -2 -2 -2 -3 -4 -4 -4 -4 -4 -3 -3 -3 -3 -3 -3 -2 -2 -3 -3 -2 -2 -1
-2 -2 -2 -3 -3 -3 -3 -3 -3 -3 -5 -4 -5 -5 -5 -5 -4 -4 -4 -3 -2 -3 -3 -3 -3 -3 -3
-2 -2 -3 -3 -3 -3 -4 -4 -4 -4 -5 -5 -6 -6 -7 -6 -6 -5 -4 -3 -4 -4 -3 -4 -4 -4 -4
-2 -3 -3 -3 -3 -4 -4 -4 -5 -5 -6 -6 -7 -6 -7 -7 -7 -7 -7 -4 -5 -4 -4 -4 -4 -4 -4
-3 -3 -3 -3 -4 -4 -4 -5 -5 -6 -5 -6 -6 -6 -7 -7 -7 -7 -6 -7 -4 -4 -5 -4 -4 -4 -4
-3 -3 -3 -4 -4 -4 -5 -5 -6 -5 -5 -5 -6 -6 -6 -6 -6 -6 -6 -6 -5 -5 -6 -5 -4 -4 -4
-3 -3 -4 -4 -4 -5 -5 -5 -5 -5 -6 -6 -6 -6 -6 -5 -5 -6 -6 -5 -5 -6 -6 -6 -5 -4 -4
-3 -3 -3 -4 -4 -5 -5 -5 -6 -6 -6 -6 -7 -7 -9 -8 -6 -6 -6 -5 -6 -6 -6 -6 -6 -5 -5

GFSFLT2_925_temp_087.txt.gz
Temp
4 4 4 3 3 5 3 3 3 3 3 4 4 4 4 4 4 5 6 7 8 8 11 12 12 11 11
4 3 3 3 3 3 2 2 2 2 2 2 2 2 2 2 4 5 6 6 7 7 7 9 9 9 9
3 3 2 2 2 2 2 2 2 2 2 2 2 1 1 1 3 4 4 5 5 6 7 7 7 7 7
3 3 2 2 2 2 1 1 1 1 1 1 1 1 1 1 2 2 3 3 3 3 5 5 5 6 6
3 2 2 1 1 1 1 1 0 0 1 1 1 1 1 1 0 1 2 2 3 3 3 4 4 4 5
2 2 1 1 1 0 0 -0 -1 -1 -0 -0 -0 -0 -0 -1 -1 -1 -1 0 1 2 2 2 3 3 3
2 2 1 1 0 -1 -1 -1 -1 -2 -1 -1 -1 -1 -1 -1 -2 -2 -2 -1 -1 0 1 1 1 2 2
1 1 1 0 -1 -1 -1 -2 -2 -2 -2 -2 -2 -2 -2 -2 -2 -2 -2 -2 -2 -1 -1 -1 -1 -0 0
-0 -0 -1 -1 -1 -1 -2 -2 -3 -3 -3 -3 -3 -2 -2 -2 -2 -2 -3 -3 -3 -2 -2 -2 -2 -1 -1
-2 -2 -2 -3 -2 -2 -2 -2 -3 -3 -3 -3 -4 -3 -3 -3 -3 -3 -3 -2 -2 -2 -2 -2 -2 -1 -1
-2 -2 -2 -2 -2 -2 -2 -2 -3 -3 -4 -4 -5 -5 -5 -5 -4 -4 -4 -3 -3 -2 -2 -3 -3 -3 -3
-2 -2 -2 -2 -2 -3 -3 -3 -3 -4 -4 -5 -5 -6 -7 -7 -6 -5 -4 -3 -3 -3 -4 -3 -3 -3 -3
-2 -2 -2 -2 -3 -3 -4 -4 -4 -5 -5 -6 -6 -6 -7 -7 -7 -7 -6 -4 -4 -3 -4 -4 -3 -3 -3
-2 -2 -3 -3 -3 -4 -4 -4 -4 -4 -5 -5 -6 -6 -7 -7 -7 -7 -6 -6 -4 -4 -5 -4 -4 -4 -4
-3 -3 -3 -3 -4 -4 -4 -5 -5 -5 -5 -5 -6 -6 -6 -6 -6 -6 -5 -5 -4 -5 -5 -5 -3 -4 -4
-3 -3 -3 -3 -4 -4 -5 -5 -5 -5 -5 -5 -6 -6 -6 -5 -4 -5 -6 -6 -5 -5 -6 -6 -5 -3 -3
-2 -3 -3 -3 -4 -5 -5 -5 -5 -5 -5 -6 -6 -7 -9 -8 -5 -6 -6 -5 -6 -6 -6 -6 -6 -5 -5

GFSFLT2_925_temp_090.txt.gz
Temp
5 4 4 4 4 4 3 4 4 3 3 4 3 3 3 3 3 4 5 8 8 10 11 12 12 12 12
5 4 3 3 3 3 3 3 3 2 2 2 2 2 1 2 3 4 5 7 7 7 9 11 11 11 11
4 3 2 2 2 2 2 2 2 2 2 2 2 1 1 1 3 4 4 5 6 7 7 8 8 9 9
3 3 2 2 2 2 1 1 1 1 1 1 1 1 1 1 2 2 3 3 4 5 6 7 7 7 7
3 2 2 1 2 2 1 1 0 1 1 1 1 0 0 0 -0 1 1 2 3 3 4 5 5 6 6
3 2 2 1 1 1 0 -0 -1 -1 -0 -0 -0 -1 -0 -1 -1 -1 -1 -0 1 2 2 3 3 3 4
2 2 2 2 1 0 -0 -1 -1 -1 -1 -1 -1 -1 -1 -1 -2 -2 -1 -1 -1 -0 0 1 2 2 3
1 2 2 1 1 0 -0 -1 -2 -2 -2 -2 -2 -2 -2 -2 -3 -2 -2 -2 -1 -1 -1 -1 -1 -1 0
-0 -0 -0 -0 -0 -1 -1 -2 -3 -3 -2 -2 -3 -2 -2 -3 -2 -2 -3 -3 -3 -3 -3 -2 -1 -1 -0
-1 -1 -1 -2 -1 -1 -1 -2 -2 -3 -3 -3 -3 -3 -3 -3 -3 -3 -3 -2 -2 -2 -2 -2 -2 -1 -0
-2 -2 -2 -2 -2 -2 -2 -2 -2 -2 -3 -3 -4 -4 -4 -4 -3 -3 -3 -3 -3 -2 -2 -2 -2 -1 -1
-2 -2 -2 -2 -2 -2 -3 -3 -3 -3 -3 -3 -4 -4 -5 -5 -5 -4 -4 -3 -3 -3 -3 -3 -3 -2 -2
-2 -2 -2 -2 -3 -3 -3 -4 -4 -4 -5 -5 -5 -5 -6 -6 -6 -6 -5 -4 -4 -3 -3 -4 -3 -2 -2
-2 -2 -2 -3 -3 -3 -4 -4 -4 -4 -5 -5 -5 -6 -6 -6 -6 -6 -5 -6 -4 -4 -4 -4 -3 -3 -3
-2 -2 -3 -3 -3 -4 -4 -4 -5 -4 -5 -5 -5 -5 -6 -6 -6 -5 -4 -5 -4 -5 -5 -5 -3 -3 -4
-2 -3 -3 -3 -3 -4 -4 -5 -5 -5 -5 -5 -5 -6 -6 -4 -4 -5 -5 -5 -4 -5 -5 -5 -4 -3 -4
-2 -2 -3 -3 -4 -4 -4 -5 -5 -5 -5 -5 -6 -6 -8 -7 -4 -5 -5 -5 -5 -6 -5 -5 -6 -5 -4

GFSFLT2_925_temp_093.txt.gz
Temp
6 5 5 4 4 4 4 4 3 3 3 3 4 3 3 2 2 3 5 7 8 9 11 11 11 12 12
5 4 4 4 3 3 3 3 3 2 2 2 2 1 1 1 3 4 5 6 7 7 10 11 11 12 12
5 4 3 3 2 2 2 2 2 2 2 2 1 1 1 1 3 4 4 4 7 7 7 10 10 11 11
4 3 3 2 2 2 1 1 1 2 1 1 1 1 1 1 2 2 3 3 4 6 7 7 8 8 9
3 2 2 1 1 1 1 1 1 1 1 1 0 0 0 1 -0 -0 1 1 3 4 6 6 7 7 7
2 2 2 2 1 0 1 -0 1 -0 -0 -0 -0 -1 -0 -0 -1 -1 -0 -0 1 2 3 4 5 5 6
2 3 3 3 2 1 1 0 -0 -1 -1 -2 -1 -1 -1 -1 -1 -1 -1 -1 -0 -0 1 2 3 3 4
2 2 2 2 1 1 0 -0 -1 -1 -1 -1 -2 -2 -2 -2 -3 -2 -2 -1 -1 -1 -1 -1 -0 2 2
0 1 1 1 0 0 -1 -2 -2 -2 -2 -2 -2 -2 -2 -2 -2 -3 -3 -3 -3 -2 -2 -2 -0 0 0
-1 -1 -1 -1 -1 -1 -1 -1 -2 -2 -2 -2 -3 -3 -3 -3 -3 -3 -2 -2 -2 -2 -2 -3 -2 -0 -0
-1 -1 -1 -2 -1 -1 -1 -1 -1 -2 -2 -2 -3 -3 -3 -3 -3 -3 -3 -2 -2 -2 -2 -2 -1 -1 -1
-1 -2 -2 -2 -2 -2 -2 -2 -2 -2 -2 -3 -3 -4 -4 -4 -4 -3 -3 -3 -3 -3 -3 -3 -2 -2 -1
-2 -2 -2 -2 -2 -3 -3 -3 -3 -3 -3 -4 -4 -4 -5 -5 -5 -5 -5 -4 -3 -3 -3 -3 -3 -3 -2
-1 -2 -2 -2 -3 -3 -3 -3 -4 -4 -4 -4 -4 -5 -5 -5 -6 -6 -4 -4 -4 -4 -4 -3 -3 -3 -2
-2 -2 -2 -3 -3 -3 -3 -4 -4 -4 -4 -4 -5 -5 -5 -5 -6 -4 -4 -4 -3 -4 -4 -4 -3 -3 -3
-2 -2 -2 -3 -3 -4 -4 -4 -4 -4 -4 -5 -5 -5 -5 -3 -4 -5 -5 -4 -4 -4 -4 -5 -4 -3 -3
-2 -2 -2 -3 -4 -4 -4 -5 -5 -5 -4 -5 -5 -6 -5 -4 -4 -4 -4 -4 -4 -4 -4 -5 -5 -4 -3

GFSFLT2_925_temp_096.txt.gz
Temp
7 6 5 5 5 4 4 4 4 4 3 3 3 3 3 2 3 3 4 5 6 8 9 11 11 11 12
5 5 5 4 4 4 4 3 2 3 2 3 2 2 2 1 3 4 4 4 6 7 8 10 11 12 12
5 4 4 3 3 2 2 2 2 2 2 2 1 1 2 2 2 3 4 4 5 7 6 9 11 11 12
4 3 3 3 2 2 1 1 1 2 2 2 2 2 2 2 2 2 3 3 3 5 6 6 9 10 10
3 3 2 1 1 2 2 1 1 0 0 -0 -0 0 0 0 0 -0 0 2 3 4 5 6 6 7 8
3 2 2 2 2 2 2 2 3 0 -0 -0 -0 -1 -1 -1 -1 -1 -0 0 1 3 3 4 4 6 6
2 2 3 3 2 1 1 1 2 0 -1 1 -1 -1 -1 -1 -2 -1 -1 -1 -0 0 2 3 3 4 4
2 2 2 2 1 1 0 0 -1 -0 -1 1 -2 -1 -2 -2 -1 -2 -1 -1 -1 -1 -1 1 2 2 3
1 1 1 1 0 0 -1 -0 1 -0 -1 -1 -2 -2 -2 -2 -2 -2 -2 -2 -3 -2 -2 -1 0 1 2
-1 -1 -1 -0 -0 -0 -1 -1 -0 -0 -2 -1 -2 -2 -1 -3 -3 -3 -3 -2 -2 -1 -2 -2 -1 -1 -0
-1 -1 -1 -2 -1 -1 -1 -1 -1 -1 -1 -2 -3 -3 -2 -2 -3 -3 -3 -3 -2 -2 -2 -1 -1 -0 -1
-1 -1 -1 -2 -2 -1 -1 -2 -2 -2 -2 -2 -2 -3 -3 -2 -1 -3 -3 -3 -3 -3 -2 -2 -2 -2 -1
-1 -1 -2 -2 -2 -2 -2 -2 -2 -2 -2 -3 -3 -3 -3 -3 -3 -3 -4 -4 -3 -3 -3 -3 -3 -2 -2
-1 -2 -2 -2 -3 -3 -3 -3 -3 -3 -3 -3 -3 -3 -4 -4 -4 -4 -4 -4 -3 -3 -3 -3 -3 -2 -2
-2 -2 -3 -3 -4 -4 -4 -4 -4 -3 -4 -4 -3 -4 -4 -4 -4 -4 -4 -4 -4 -4 -4 -4 -3 -3 -3
-2 -3 -3 -3 -3 -4 -4 -4 -3 -3 -4 -4 -5 -5 -5 -3 -2 -4 -4 -4 -4 -5 -4 -5 -4 -3 -3
-2 -2 -2 -3 -4 -4 -4 -4 -4 -3 -4 -5 -5 -5 -3 -2 -3 -3 -4 -5 -5 -5 -5 -5 -5 -4 -4

GFSFLT2_925_temp_099.txt.gz
Temp
8 7 7 5 5 5 5 4 4 4 4 4 3 3 3 3 3 5 4 4 5 6 7 9 11 11 11
6 7 5 4 4 4 4 3 4 4 3 3 2 3 3 3 3 4 4 3 3 6 7 10 11 11 12
6 5 4 4 3 3 3 3 3 3 3 2 2 2 2 2 2 3 4 3 3 6 7 8 10 12 12
5 4 4 3 3 2 2 2 2 2 2 2 2 2 2 1 0 1 1 2 2 4 7 6 8 10 11
4 3 3 2 2 2 2 2 2 1 1 1 1 1 0 0 -0 -0 0 1 1 3 6 6 7 8 10
3 3 3 3 2 2 2 2 3 1 0 0 1 -0 -1 -0 -1 -1 -0 0 0 2 3 5 6 7 7
3 3 3 3 3 2 2 3 3 1 1 1 0 -0 -1 -1 -1 -1 -1 -0 -0 -0 1 3 4 5 6
2 3 3 3 2 2 2 1 1 1 1 1 -0 -0 -1 -1 -1 -1 -1 -1 -1 -1 -1 1 1 3 4
1 2 2 2 1 1 1 0 1 -0 -0 -0 -1 -1 -1 -2 -2 -2 -1 -1 -2 -1 -2 -0 0 0 2
0 1 1 1 1 0 0 0 1 -0 -1 -1 -2 -2 -2 -2 -2 -2 -2 -1 -1 -1 -1 1 0 -0 -0
-0 -1 -1 -1 -1 -0 -0 0 -0 -1 -1 -1 -2 -2 -2 -2 -2 -2 -2 -2 -1 -1 -1 -0 -0 1 0
-0 -0 -1 -1 -2 -2 -1 -0 -0 -1 -1 -1 -1 -2 -2 -2 -1 -2 -2 -2 -2 -1 -1 -1 -1 -1 -0
-0 -0 -1 -1 -1 -1 -1 -1 -1 -1 -1 -1 -1 -2 -2 -2 -2 -3 -3 -3 -2 -2 -2 -1 -1 -1 -1
-1 -1 -2 -2 -2 -2 -2 -2 -3 -2 -2 -2 -2 -2 -3 -3 -3 -3 -3 -3 -3 -2 -2 -2 -2 -1 -1
-1 -1 -2 -2 -3 -2 -3 -3 -3 -3 -3 -3 -3 -3 -3 -3 -3 -3 -3 -3 -3 -3 -4 -3 -2 -2 -2
-1 -2 -2 -2 -3 -3 -3 -3 -3 -3 -3 -4 -3 -4 -4 -2 -2 -3 -3 -3 -4 -4 -4 -4 -3 -2 -2
-1 -2 -3 -3 -3 -3 -3 -4 -4 -3 -3 -3 -4 -4 -4 -5 -2 -2 -3 -4 -4 -4 -4 -4 -4 -3 -3

GFSFLT2_925_temp_102.txt.gz
Temp
8 7 6 6 6 6 5 5 5 4 4 4 3 4 4 4 4 3 3 3 4 5 6 7 10 11 12
7 6 6 5 5 5 4 4 4 4 4 3 3 3 3 3 4 3 3 2 3 5 7 8 10 11 11
6 6 5 5 4 4 4 3 3 3 3 2 2 2 2 2 1 2 1 2 3 4 6 6 10 11 12
5 5 5 4 3 3 3 3 3 3 2 2 2 2 2 1 1 0 1 1 2 3 6 6 6 10 11
4 4 4 3 3 3 2 2 2 2 2 1 1 1 1 0 0 0 1 1 1 2 5 6 6 7 10
4 4 3 3 3 3 2 1 1 1 1 1 1 0 0 0 -0 -0 -0 0 1 1 3 5 6 6 8
3 3 2 3 3 2 2 2 2 2 1 0 0 -0 -0 -1 -1 -1 -1 -1 -1 -0 3 3 5 6 6
3 3 3 3 3 3 3 2 2 1 1 0 -0 -0 -0 -1 -1 -1 -1 -1 -1 -1 1 3 3 4 5
2 2 2 3 3 3 2 1 0 0 0 0 -0 -1 -1 -2 -1 -2 -1 -1 -1 -2 -1 0 1 2 3
1 1 2 1 1 2 2 1 1 -1 -0 -0 -1 -1 -2 -2 -2 -1 -1 -1 -1 -1 0 0 0 1 1
0 -0 0 0 0 0 0 1 1 0 -0 -0 -1 -2 -1 -2 -2 -2 -1 -1 -1 -1 -1 -0 0 1 1
-0 -1 -1 -1 -1 -0 -0 0 0 1 1 -0 -0 -1 -1 -2 -2 -1 -1 -1 -1 -1 -0 -0 -1 -1 0
-0 -0 -1 -1 -1 -1 -1 -1 -1 -0 -0 -0 -0 -0 -1 -1 -2 -2 -2 -2 -2 -1 -1 -1 -1 -1 -1
-0 -0 -1 -1 -2 -2 -2 -2 -2 -2 -2 -1 -2 -1 -1 -2 -2 -2 -2 -2 -1 -1 -1 -1 -1 -1 -1
-0 -1 -1 -2 -2 -2 -2 -2 -2 -2 -2 -2 -2 -2 -2 -2 -2 -2 -2 -3 -2 -2 -2 -2 -1 -1 -1
-1 -1 -1 -2 -3 -3 -3 -3 -3 -3 -3 -3 -3 -4 -3 -2 -2 -2 -3 -3 -3 -3 -3 -3 -1 -1 -1
-1 -1 -1 -2 -3 -3 -4 -3 -3 -3 -3 -3 -3 -3 -7 -8 -2 -1 -2 -2 -3 -4 -4 -4 -3 -2 -2

GFSFLT2_925_temp_108.txt.gz
Temp
8 8 7 7 8 7 6 6 7 6 5 4 5 4 4 4 4 3 3 3 3 3 4 5 6 7 9
7 6 6 6 7 6 6 6 5 5 4 4 3 3 3 3 3 1 3 2 2 2 4 5 7 9 10
7 6 5 5 5 5 5 5 4 4 4 3 3 3 3 2 1 2 1 1 2 3 3 5 6 8 9
7 5 5 5 4 4 4 4 4 3 3 3 2 2 2 1 2 2 1 1 1 2 3 5 6 6 9
5 4 4 3 4 4 3 3 3 2 2 2 2 2 2 1 1 1 0 0 0 0 2 5 5 6 8
5 4 4 5 5 4 3 2 1 3 2 2 2 1 1 1 1 -0 -0 -0 -0 -0 2 4 5 5 8
6 5 4 5 4 3 3 2 3 3 2 2 1 1 1 0 -0 -1 -1 -1 -1 -1 1 3 4 5 7
5 5 5 5 4 4 3 2 2 2 1 2 1 1 1 0 -1 -1 -2 -1 -1 -1 1 2 3 4 6
4 4 4 4 3 3 2 1 0 1 1 2 0 -0 -0 -0 -1 -1 -1 -1 -1 -1 0 2 2 2 4
3 3 3 3 3 3 3 1 1 -0 1 1 0 0 -1 -1 -1 -1 -1 -1 -1 -1 -0 1 1 2 3
2 2 2 2 2 2 2 3 2 3 2 1 -0 -1 -1 -2 -1 -1 -1 -1 -1 -0 -0 0 1 1 2
1 0 0 0 1 1 1 1 1 2 2 1 1 -0 -1 -2 -1 -1 -1 -1 -1 -1 -1 -0 0 1 1
-0 -0 0 0 -0 -0 -0 -0 -0 0 1 1 0 -0 -0 0 -1 -1 -1 -1 -1 -1 -1 -0 0 0 1
-2 -1 -1 -1 -1 -1 -1 -2 -2 -2 -1 -1 -1 -1 -0 -0 0 -0 -1 -1 -1 -1 -1 -1 -1 -0 -0
-2 -2 -2 -2 -3 -3 -2 -2 -2 -3 -3 -3 -2 -2 -1 -0 -1 -0 -1 -1 -1 -1 -1 -1 -1 -1 -0
-2 -2 -3 -4 -3 -3 -3 -3 -3 -3 -3 -3 -3 -3 -2 -1 -1 -0 -1 -1 -2 -2 -2 -2 -1 -1 -1
-2 -2 -3 -4 -3 -3 -4 -3 -4 -3 -3 -3 -3 -2 -8 -5 -2 -1 -1 -1 -1 -2 -2 -2 -2 -2 -2

GFSFLT2_925_temp_111.txt.gz
Temp
10 9 8 8 8 8 8 8 8 7 6 5 5 5 4 4 4 4 4 2 3 3 3 4 5 6 7
7 7 7 7 7 7 7 7 7 6 6 5 4 4 4 3 3 3 2 2 2 2 3 4 5 6 8
6 6 6 6 5 5 5 6 5 5 5 4 4 3 3 3 2 2 2 1 2 2 2 4 6 6 7
6 5 5 5 5 5 4 4 4 4 4 4 3 3 3 3 2 2 2 1 1 1 1 3 6 6 7
6 5 5 4 4 4 4 4 3 3 3 3 3 3 2 2 2 1 0 0 0 0 1 3 4 6 7
5 5 5 5 4 4 3 2 2 3 2 2 2 2 2 2 1 0 -0 -1 -1 -0 0 2 3 6 6
6 5 5 6 5 4 3 3 3 3 1 1 1 2 1 1 1 -0 -1 -1 -1 -1 -0 1 4 6 6
6 7 7 6 5 5 5 3 2 2 1 2 1 2 1 1 0 -1 -1 -1 -1 -1 -1 1 3 6 6
5 5 5 5 5 4 3 1 -0 1 1 1 1 1 0 0 -0 -1 -1 -1 -1 -1 -1 1 2 4 5
3 4 4 4 4 4 4 1 1 -0 1 1 1 1 -1 -1 -1 -1 -1 -1 -1 0 0 0 2 3 4
3 3 3 3 2 3 3 3 2 4 3 1 -0 -0 -0 -2 -2 -1 -1 -1 -0 -0 0 1 2 2 3
1 1 1 1 1 1 1 1 1 2 3 2 2 0 -0 -2 -2 -2 -1 -1 -1 -1 0 1 1 2 2
-1 -0 1 1 0 0 0 0 0 1 1 1 1 1 0 1 -1 -2 -2 -1 -1 -1 -0 0 1 1 1
-1 -1 -1 -2 -2 -1 -1 -1 -1 -1 -1 -0 -0 -0 -0 -0 0 -1 -1 -1 -1 -1 -0 -0 -0 -0 0
-1 -2 -2 -3 -3 -3 -2 -3 -3 -3 -3 -3 -2 -2 -1 -0 -1 -0 -1 -1 -1 -0 -0 -1 -1 -0 -0
-2 -2 -3 -3 -4 -4 -4 -4 -4 -4 -4 -4 -3 -3 -2 -2 -1 -1 -1 -1 -2 -1 -1 -1 -1 -1 -0
-2 -2 -3 -3 -3 -4 -4 -4 -5 -4 -4 -3 -4 -3 -7 -5 -2 -2 -1 -1 -2 -2 -2 -1 -1 -1 -1